TimeEDT,TemperatureF,Dew PointF,Humidity,Sea Level PressureIn,VisibilityMPH,Wind Direction,Wind SpeedMPH,Gust SpeedMPH,PrecipitationIn,Events,Conditions,WindDirDegrees,DateUTC
12:53 AM,66.0,62.1,87,29.59,8.0,South,6.9,-,0.04,Rain,Light Rain,170,2013-09-22 04:53:00
1:53 AM,66.0,62.1,87,29.54,10.0,SSE,8.1,-,0.04,Rain,Light Rain,160,2013-09-22 05:53:00
2:27 AM,66.2,62.6,88,29.56,7.0,South,12.7,21.9,0.03,Rain,Light Rain,180,2013-09-22 06:27:00
2:41 AM,66.2,62.6,88,29.58,2.5,South,20.7,32.2,0.14,Rain,Rain,190,2013-09-22 06:41:00
2:49 AM,66.2,62.6,88,29.58,4.0,SSW,10.4,32.2,0.17,Rain,Rain,200,2013-09-22 06:49:00
2:53 AM,66.0,62.1,87,29.56,4.0,SSW,12.7,-,0.17,Rain,Rain,210,2013-09-22 06:53:00
3:20 AM,64.4,60.8,88,29.60,5.0,WSW,4.6,-,0.07,Rain,Rain,250,2013-09-22 07:20:00
3:28 AM,64.4,60.8,88,29.60,5.0,West,6.9,-,0.09,Rain,Rain,280,2013-09-22 07:28:00
3:38 AM,64.4,57.2,77,29.60,7.0,WSW,3.5,-,0.10,Rain,Light Rain,240,2013-09-22 07:38:00
3:53 AM,63.0,57.9,84,29.58,6.0,WSW,5.8,-,0.11,Rain,Light Rain,250,2013-09-22 07:53:00
4:12 AM,62.6,57.2,82,29.60,7.0,South,5.8,-,0.03,Rain,Light Rain,180,2013-09-22 08:12:00
4:46 AM,60.8,57.2,88,29.61,10.0,Calm,Calm,-,0.03,Rain,Light Rain,0,2013-09-22 08:46:00
4:53 AM,61.0,57.9,90,29.58,10.0,Calm,Calm,-,0.03,Rain,Light Rain,0,2013-09-22 08:53:00
5:05 AM,60.8,57.2,88,29.62,10.0,South,3.5,-,0.00,Rain,Light Rain,170,2013-09-22 09:05:00
5:33 AM,60.8,57.2,88,29.62,9.0,South,5.8,-,0.03,Rain,Light Rain,170,2013-09-22 09:33:00
5:53 AM,60.1,57.0,90,29.61,10.0,SSE,5.8,-,0.04,Rain,Light Rain,160,2013-09-22 09:53:00
6:53 AM,60.1,57.0,90,29.61,10.0,SSW,4.6,-,0.00,,Overcast,210,2013-09-22 10:53:00
7:53 AM,61.0,55.9,83,29.62,10.0,SSW,6.9,-,N/A,,Mostly Cloudy,200,2013-09-22 11:53:00
8:53 AM,61.0,54.0,78,29.63,10.0,SSW,9.2,-,N/A,,Scattered Clouds,210,2013-09-22 12:53:00
9:05 AM,60.8,53.6,77,29.66,10.0,SW,9.2,-,N/A,,Mostly Cloudy,220,2013-09-22 13:05:00
9:19 AM,60.8,51.8,72,29.67,10.0,West,12.7,-,N/A,,Overcast,270,2013-09-22 13:19:00
9:53 AM,62.1,48.9,62,29.65,10.0,WSW,6.9,-,N/A,,Partly Cloudy,250,2013-09-22 13:53:00
10:53 AM,64.0,46.0,52,29.65,10.0,West,10.4,17.3,N/A,,Scattered Clouds,270,2013-09-22 14:53:00
11:53 AM,63.0,48.0,58,29.66,10.0,WSW,6.9,-,N/A,,Mostly Cloudy,250,2013-09-22 15:53:00
12:53 PM,64.0,46.9,54,29.67,10.0,West,8.1,-,0.01,,Overcast,280,2013-09-22 16:53:00
1:53 PM,63.0,48.0,58,29.66,10.0,WNW,5.8,-,N/A,,Overcast,300,2013-09-22 17:53:00
2:53 PM,63.0,48.9,60,29.67,10.0,NW,9.2,-,N/A,,Overcast,320,2013-09-22 18:53:00
3:16 PM,59.0,48.2,67,29.71,10.0,NW,9.2,19.6,0.00,Rain,Light Rain,320,2013-09-22 19:16:00
3:33 PM,59.0,50.0,72,29.71,10.0,NNW,10.4,-,0.00,Rain,Light Rain,330,2013-09-22 19:33:00
3:53 PM,59.0,48.9,69,29.70,10.0,NNW,5.8,-,0.00,,Overcast,330,2013-09-22 19:53:00
4:49 PM,60.8,46.4,59,29.74,10.0,NNW,8.1,-,N/A,,Overcast,330,2013-09-22 20:49:00
4:53 PM,60.1,46.9,62,29.73,10.0,NNW,9.2,-,N/A,,Overcast,330,2013-09-22 20:53:00
5:14 PM,57.2,48.2,72,29.75,10.0,NNW,10.4,17.3,0.00,,Overcast,330,2013-09-22 21:14:00
5:53 PM,57.0,46.0,67,29.75,10.0,NNW,5.8,-,0.00,,Overcast,330,2013-09-22 21:53:00
6:53 PM,55.9,44.1,64,29.77,10.0,NNW,6.9,-,N/A,,Overcast,330,2013-09-22 22:53:00
7:53 PM,55.0,44.1,67,29.80,10.0,North,5.8,-,N/A,,Overcast,10,2013-09-22 23:53:00
8:53 PM,52.0,41.0,66,29.83,10.0,North,6.9,-,N/A,,Clear,350,2013-09-23 00:53:00
9:53 PM,52.0,42.1,69,29.84,10.0,NW,4.6,-,N/A,,Mostly Cloudy,320,2013-09-23 01:53:00
10:53 PM,50.0,41.0,71,29.85,10.0,NW,6.9,-,N/A,,Partly Cloudy,310,2013-09-23 02:53:00
11:53 PM,50.0,39.9,68,29.86,10.0,North,3.5,-,N/A,,Mostly Cloudy,10,2013-09-23 03:53:00